[[{"header":{"parameterUnit":"m.s-1","parameterCategory":1,"la1":30.2992,"la2":30.254,"lo1":-89.0895,"lo2":-89.0443,"dy":0.0025,"dx":0.0025,"nx":19,"ny":19,"refTime":"2026-03-28T09:00:00:Z","depth":0,"parameterNumber":2,"parameterNumberName":"U-component_of_WINDS"},"data":[0,0,0,-5.4208,-5.4211,-5.4299,-5.4299,-5.4462,-5.4464,0,0,0,0,0,0,0,0,0,0,0,-5.4212,-5.4214,-5.4208,-5.4211,-5.4299,-5.4299,-5.4462,-5.4464,0,0,0,0,0,0,0,0,0,0,0,-5.4211,-5.4213,-5.4216,-5.4211,-5.4299,-5.4299,-5.4461,-5.4377,0,0,0,0,0,0,0,0,0,0,-5.4283,-5.4315,-5.4213,-5.4216,-5.4212,-5.4299,-5.4299,-5.4372,-5.4382,-5.4443,0,-5.4505,0,-5.4487,-5.4478,-5.4479,0,0,0,-5.4189,-5.4306,-5.4303,-5.4216,-5.4213,-5.4299,-5.4253,-5.4377,-5.4389,-5.4457,-5.4507,-5.4511,-5.449,-5.4479,-5.4481,-5.4903,-5.4906,0,0,-5.4184,-5.4243,-5.4296,-5.4312,-5.4301,-5.4251,-5.4256,-5.4383,-5.4442,-5.4507,-5.4514,-5.4493,-5.4481,-5.4482,-5.49,-5.4904,0,0,0,-5.4185,-5.4241,-5.4234,-5.4307,-5.4319,-5.4254,-5.426,-5.4436,-5.4428,-5.4516,-5.4495,-5.4482,-5.4485,-5.4897,-5.4902,-5.5106,0,0,0,-5.4181,-5.4241,-5.4233,-5.427,-5.4318,-5.4379,-5.4311,-5.442,-5.4432,-5.4494,-5.4482,-5.4487,-5.4893,-5.4899,-5.5093,-5.5192,0,0,0,-5.4196,-5.4242,-5.4265,-5.4273,-5.4313,-5.4375,-5.4374,-5.4421,-5.4421,-5.4479,-5.4487,-5.4891,-5.4898,-5.5082,-5.5173,-5.532,0,0,0,-5.4229,-5.4447,-5.427,-5.4506,-5.4313,-5.4502,-5.4373,-5.451,-5.4585,-5.4483,-5.4894,-5.4901,-5.5078,-5.5161,-5.5308,-5.5452,-5.5518,0,0,-5.4537,-5.4486,-5.462,-5.4464,-5.4699,-5.4483,-5.4748,-5.4761,-5.4713,-5.4843,-5.4852,-5.5097,-5.5172,-5.5317,-5.5871,-5.5925,0,0,0,-5.4738,-5.4835,-5.4884,-5.4958,-5.4973,-5.4993,-5.4959,-5.4964,-5.507,-5.4792,-5.5189,-5.5231,-5.5314,-5.538,-5.5425,-5.5492,-5.4935,-5.4934,-5.4933,-5.5259,-5.5185,-5.5401,-5.5339,-5.5413,-5.5375,-5.5427,-5.5427,-5.5332,-5.5428,-5.5465,-5.581,-5.589,-5.5923,-5.5994,-5.5537,-5.5538,-5.5538,-5.5539,-5.5702,-5.5827,-5.5696,-5.5858,-5.578,-5.5916,-5.589,-5.5818,-5.5933,-5.5776,-5.5845,-5.5678,-5.5984,-5.6041,-5.5554,-5.5551,-5.5549,-5.5548,-5.5547,-5.6033,-5.6079,-5.6082,-5.618,-5.6265,-5.6194,-5.6311,-5.6236,-5.6166,-5.6235,-5.6265,-5.6262,-5.6247,-5.6255,-5.6257,-5.6258,-5.6259,-5.626,-5.626,-5.6374,-5.637,-5.6477,-5.6512,-5.6549,-5.6588,-5.6554,-5.6589,-5.6608,-5.6544,-5.6544,-5.6439,-5.6028,-5.5925,-5.6279,-5.6275,-5.6273,-5.6271,-5.627,-5.6847,-5.6728,-5.6894,-5.6931,-5.6965,-5.7054,-5.6958,-5.7035,-5.7053,-5.7114,-5.6995,-5.6704,-5.6646,-5.661,-5.6524,-5.7011,-5.7011,-5.7011,-5.7011,-5.7124,-5.7088,-5.724,-5.7305,-5.736,-5.7289,-5.748,-5.7456,-5.7413,-5.742,-5.7339,-5.722,-5.7186,-5.7148,-5.71,-5.7019,-5.7621,-5.7621,-5.7622,-5.741,-5.7376,-5.7551,-5.7507,-5.7529,-5.755,-5.7726,-5.7806,-5.7733,-5.7645,-5.7423,-5.7398,-5.7204,-5.7145,-5.705,-5.6977,-5.6826,0,0]},{"header":{"parameterUnit":"m.s-1","parameterCategory":1,"la1":30.2992,"la2":30.254,"lo1":-89.0895,"lo2":-89.0443,"dy":0.0025,"dx":0.0025,"nx":19,"ny":19,"refTime":"2026-03-28T09:00:00:Z","depth":0,"parameterNumber":3,"parameterNumberName":"V-component_of_WINDS"},"data":[0,0,0,0.0885,0.0886,0.0956,0.0956,0.1062,0.1063,0,0,0,0,0,0,0,0,0,0,0,0.0871,0.0872,0.0885,0.0887,0.0956,0.0956,0.1062,0.1064,0,0,0,0,0,0,0,0,0,0,0,0.087,0.0871,0.0873,0.0887,0.0956,0.0956,0.1062,0.1004,0,0,0,0,0,0,0,0,0,0,0.0934,0.0927,0.0871,0.0873,0.0887,0.0956,0.0956,0.1001,0.1008,0.1037,0,0.1062,0,0.1064,0.1071,0.1072,0,0,0,0.0882,0.0921,0.0934,0.0873,0.0888,0.0956,0.0923,0.1005,0.1012,0.1046,0.1063,0.1067,0.1066,0.1072,0.1073,0.1251,0.1252,0,0,0.0878,0.0887,0.0928,0.0939,0.0925,0.0921,0.0926,0.1009,0.103,0.1063,0.1069,0.1068,0.1073,0.1074,0.125,0.1251,0,0,0,0.087,0.0885,0.0895,0.0935,0.0946,0.0923,0.0928,0.1026,0.1028,0.107,0.1069,0.1074,0.1075,0.1249,0.1251,0.1312,0,0,0,0.0868,0.088,0.0894,0.09,0.0944,0.0986,0.0944,0.1022,0.1032,0.1068,0.1074,0.1076,0.1248,0.125,0.1308,0.1341,0,0,0,0.0864,0.088,0.0892,0.09,0.093,0.0984,0.0991,0.1024,0.1031,0.1072,0.1077,0.1247,0.1249,0.1304,0.1335,0.1394,0,0,0,0.0863,0.0944,0.0893,0.0983,0.093,0.102,0.0991,0.1058,0.11,0.1074,0.1248,0.125,0.1303,0.1331,0.139,0.1448,0.1471,0,0,0.097,0.0957,0.101,0.0966,0.1068,0.1009,0.1121,0.1151,0.1147,0.1218,0.1222,0.1309,0.1334,0.1393,0.1595,0.1614,0,0,0,0.1047,0.1086,0.111,0.115,0.1174,0.12,0.1211,0.1224,0.1283,0.1184,0.1344,0.1359,0.1393,0.1421,0.1437,0.1468,0.1262,0.1262,0.1262,0.1213,0.1204,0.1292,0.1292,0.1331,0.1344,0.1377,0.1396,0.1374,0.1412,0.1434,0.1558,0.159,0.1602,0.1635,0.1461,0.1461,0.1461,0.1461,0.1373,0.1428,0.1399,0.1474,0.1465,0.1529,0.1546,0.153,0.1591,0.1539,0.1569,0.1517,0.1623,0.1652,0.1466,0.1465,0.1465,0.1464,0.1464,0.1485,0.151,0.1522,0.1581,0.1629,0.1626,0.1687,0.1676,0.1666,0.1696,0.1721,0.172,0.1722,0.1708,0.1708,0.1709,0.1709,0.1709,0.171,0.1597,0.1608,0.166,0.1695,0.1721,0.1755,0.177,0.1797,0.1825,0.1813,0.1813,0.1792,0.1633,0.1596,0.1716,0.1715,0.1714,0.1714,0.1713,0.1769,0.1729,0.1809,0.1835,0.1878,0.1929,0.1913,0.197,0.1991,0.2023,0.1995,0.1877,0.1864,0.1851,0.1821,0.1993,0.1993,0.1993,0.1993,0.1867,0.1858,0.1939,0.1983,0.2025,0.202,0.2117,0.2132,0.2141,0.2155,0.2128,0.2085,0.2072,0.2067,0.205,0.2022,0.224,0.224,0.224,0.1975,0.197,0.2052,0.2059,0.2092,0.2123,0.2215,0.2271,0.2272,0.225,0.2167,0.2156,0.2088,0.2065,0.2044,0.2016,0.1965,0,0]}]]